User: anonymous   Login
Location: Unspecified
(0.0000°N, 0.0000°E)
Time: 22:59:48
(UTC+00:00)
Language:

IBEX - Orbit

View from above orbital plane
View from above orbital plane
View from above satellite
View from above satellite

Ground track
Ground track

The orbit data is extracted from the following two-line orbital elements,

1 33401U 08051A   14325.16886643 -.00000565  00000-0  00000+0 0  1192
2 33401 005.0377 155.7420 4757339 341.8010 357.7798 00.10047010  2601
Epoch (UTC): 21 November 2014 04:03:10
Eccentricity: 0.4757339
inclination: 5.0377°
perigee height: 96090 km
apogee height: 282056 km
right ascension of ascending node: 155.7420°
argument of perigee: 341.8010°
revolutions per day: 0.10047010
mean anomaly at epoch: 357.7798°
orbit number at epoch: 260

The dashed part of the orbit path shows where the satellite is in the earth's shadow,  

DLR